Location: Oberwangen
(47.4286°N, 8.9679°E)
Time: 17:00:48
(UTC+00:00)

NOAA 16 DEB - Visible Passes

Search period start: 11 August 2022 00:00
Search period end: 21 August 2022 00:00
Orbit: 805 x 835 km, 98.8° (Epoch: 10 August)

Date Brightness Start Highest point End Pass type
(mag) Time Alt. Az. Time Alt. Az. Time Alt. Az.
11 Aug ? 21:33:29 26° E 21:34:55 29° ENE 21:39:33 10° N visible
11 Aug ? 23:14:51 47° W 23:14:51 47° W 23:20:01 10° NNW visible
12 Aug ? 21:12:34 18° E 21:14:25 21° ENE 21:18:23 10° N visible
12 Aug ? 22:53:56 69° WSW 22:53:57 69° WSW 22:59:23 10° NNW visible
13 Aug ? 20:51:38 12° E 20:53:58 15° NE 20:56:58 10° NNE visible
13 Aug ? 22:33:00 80° ESE 22:33:12 82° ENE 22:38:40 10° NNW visible
14 Aug ? 00:14:22 16° W 00:14:22 16° W 00:17:09 10° NW visible
14 Aug ? 20:32:25 10° ENE 20:33:34 11° NE 20:34:44 10° NE visible
14 Aug ? 22:12:04 55° E 22:12:31 56° ENE 22:17:50 10° N visible
14 Aug ? 23:53:26 23° W 23:53:26 23° W 23:57:13 10° NW visible
15 Aug ? 21:51:09 37° E 21:51:53 39° ENE 21:56:53 10° N visible
15 Aug ? 23:32:30 33° W 23:32:30 33° W 23:36:55 10° NNW visible
16 Aug ? 21:30:13 26° E 21:31:18 28° ENE 21:35:50 10° N visible
16 Aug ? 23:11:34 49° W 23:11:34 49° W 23:16:24 10° NNW visible
17 Aug ? 21:09:16 18° E 21:10:46 20° ENE 21:14:37 10° NNE visible
17 Aug ? 22:50:38 71° WNW 22:50:38 71° WNW 22:55:44 10° NNW visible
18 Aug ? 00:32:00 11° WNW 00:32:00 11° WNW 00:32:43 10° WNW visible
18 Aug ? 20:48:20 12° ENE 20:50:20 14° NE 20:53:06 10° NNE visible
18 Aug ? 22:29:42 75° NE 22:29:42 75° NE 22:34:57 10° NNW visible
19 Aug ? 00:11:03 16° WNW 00:11:03 16° WNW 00:13:39 10° NW visible
19 Aug ? 22:08:45 52° ENE 22:08:48 52° ENE 22:14:05 10° N visible
19 Aug ? 23:50:07 24° WNW 23:50:07 24° WNW 23:53:37 10° NW visible
20 Aug ? 21:47:48 36° ENE 21:48:09 36° ENE 21:53:06 10° N visible
20 Aug ? 23:29:10 34° WNW 23:29:10 34° WNW 23:33:14 10° NNW visible
